Wetterdaten: Dienstag, 18.02.2014
Datum Zeit Temperatur Luftfeuchte Luftdruck Regen Wind Richtung Richtung Taupunkt Windchill Windben
18.02.2014 00:00 -3,1 C 89 % 1016,9 hPa 0,0 l/m 0,0 km/h (0 Bft) W-NW 292 -4,6 C -3,2 C 0,0 km/h (0 Bft)
18.02.2014 00:05 -2,9 C 89 % 1016,9 hPa 0,0 l/m 0,0 km/h (0 Bft) W-NW 292 -4,5 C -3,4 C 0,0 km/h (0 Bft)
18.02.2014 00:10 -3,0 C 89 % 1016,6 hPa 0,0 l/m 0,0 km/h (0 Bft) N 360 -4,6 C -3,0 C 0,0 km/h (0 Bft)
18.02.2014 00:15 -3,0 C 89 % 1016,6 hPa 0,0 l/m 0,0 km/h (0 Bft) N 360 -4,6 C -2,9 C 0,0 km/h (0 Bft)
18.02.2014 00:20 -2,9 C 89 % 1016,6 hPa 0,0 l/m 0,0 km/h (0 Bft) N-NW 337 -4,5 C -3,2 C 0,0 km/h (0 Bft)
18.02.2014 00:25 -3,0 C 89 % 1016,6 hPa 0,0 l/m 0,0 km/h (0 Bft) N 360 -4,6 C -3,2 C 0,0 km/h (0 Bft)
18.02.2014 00:30 -3,1 C 89 % 1016,6 hPa 0,0 l/m 0,0 km/h (0 Bft) W-NW 292 -4,6 C -3,2 C 0,0 km/h (0 Bft)
18.02.2014 00:35 -2,7 C 89 % 1016,6 hPa 0,0 l/m 0,2 km/h (0 Bft) NO 45 -4,3 C -3,4 C 2,6 km/h (1 Bft)
18.02.2014 00:40 -2,5 C 89 % 1016,6 hPa 0,0 l/m 0,6 km/h (0 Bft) NO 45 -4,1 C -3,1 C 0,0 km/h (0 Bft)
18.02.2014 00:45 -2,8 C 89 % 1016,6 hPa 0,0 l/m 0,6 km/h (0 Bft) NO 45 -4,4 C -3,2 C 0,0 km/h (0 Bft)
18.02.2014 00:50 -3,2 C 89 % 1016,2 hPa 0,0 l/m 0,0 km/h (0 Bft) NO 45 -4,7 C -3,4 C 0,0 km/h (0 Bft)
18.02.2014 00:55 -3,2 C 89 % 1016,2 hPa 0,0 l/m 0,0 km/h (0 Bft) NO 45 -4,7 C -3,6 C 0,0 km/h (0 Bft)
18.02.2014 01:00 -3,3 C 89 % 1016,2 hPa 0,0 l/m 0,0 km/h (0 Bft) NO 45 -4,8 C -3,6 C 0,0 km/h (0 Bft)
18.02.2014 01:05 -3,1 C 89 % 1016,2 hPa 0,0 l/m 0,0 km/h (0 Bft) NO 45 -4,6 C -3,6 C 0,0 km/h (0 Bft)
18.02.2014 01:10 -3,1 C 89 % 1016,3 hPa 0,0 l/m 0,0 km/h (0 Bft) O-NO 67 -4,6 C -3,6 C 0,0 km/h (0 Bft)
18.02.2014 01:15 -3,1 C 89 % 1016,3 hPa 0,0 l/m 0,0 km/h (0 Bft) NO 45 -4,6 C -3,6 C 0,0 km/h (0 Bft)
18.02.2014 01:20 -3,2 C 89 % 1016,3 hPa 0,0 l/m 0,0 km/h (0 Bft) NO 45 -4,7 C -3,6 C 0,0 km/h (0 Bft)
18.02.2014 01:25 -3,5 C 89 % 1016,3 hPa 0,0 l/m 0,0 km/h (0 Bft) SO 135 -5,0 C -3,6 C 0,0 km/h (0 Bft)
18.02.2014 01:30 -3,5 C 89 % 1016,1 hPa 0,0 l/m 0,2 km/h (0 Bft) N 360 -5,0 C -3,8 C 2,1 km/h (1 Bft)
18.02.2014 01:35 -3,5 C 89 % 1016,1 hPa 0,0 l/m 0,2 km/h (0 Bft) N 360 -5,0 C -3,8 C 0,0 km/h (0 Bft)
18.02.2014 01:40 -3,2 C 89 % 1016,1 hPa 0,0 l/m 0,2 km/h (0 Bft) NO 45 -4,7 C -3,8 C 0,0 km/h (0 Bft)
18.02.2014 01:45 -3,3 C 89 % 1016,1 hPa 0,0 l/m 0,0 km/h (0 Bft) NO 45 -4,8 C -3,7 C 0,0 km/h (0 Bft)
18.02.2014 01:50 -3,3 C 89 % 1016,5 hPa 0,0 l/m 0,0 km/h (0 Bft) O-SO 112 -4,8 C -3,6 C 0,0 km/h (0 Bft)
18.02.2014 01:55 -3,0 C 89 % 1016,5 hPa 0,0 l/m 0,0 km/h (0 Bft) SW 225 -4,6 C -3,5 C 0,0 km/h (0 Bft)
18.02.2014 02:00 -2,8 C 90 % 1016,5 hPa 0,0 l/m 0,0 km/h (0 Bft) N-NO 22 -4,2 C -3,4 C 2,1 km/h (1 Bft)
18.02.2014 02:05 -2,8 C 90 % 1016,5 hPa 0,0 l/m 0,2 km/h (0 Bft) NO 45 -4,2 C -3,2 C 0,0 km/h (0 Bft)
18.02.2014 02:10 -3,3 C 89 % 1016,5 hPa 0,0 l/m 0,3 km/h (0 Bft) SO 135 -4,8 C -3,3 C 0,0 km/h (0 Bft)
18.02.2014 02:15 -3,5 C 89 % 1016,5 hPa 0,0 l/m 0,3 km/h (0 Bft) SO 135 -5,0 C -3,5 C 0,0 km/h (0 Bft)
18.02.2014 02:20 -3,3 C 90 % 1016,5 hPa 0,0 l/m 0,0 km/h (0 Bft) W 270 -4,7 C -3,4 C 0,0 km/h (0 Bft)
18.02.2014 02:25 -3,7 C 89 % 1016,5 hPa 0,0 l/m 0,0 km/h (0 Bft) W-SW 247 -5,2 C -3,6 C 0,0 km/h (0 Bft)
18.02.2014 02:30 -3,8 C 89 % 1016,4 hPa 0,0 l/m 0,0 km/h (0 Bft) W 270 -5,3 C -3,9 C 0,0 km/h (0 Bft)
18.02.2014 02:35 -3,7 C 89 % 1016,4 hPa 0,0 l/m 0,0 km/h (0 Bft) NO 45 -5,2 C -4,1 C 0,0 km/h (0 Bft)
18.02.2014 02:40 -3,7 C 90 % 1016,4 hPa 0,0 l/m 0,3 km/h (0 Bft) NO 45 -5,1 C -3,9 C 2,9 km/h (1 Bft)
18.02.2014 02:45 -3,3 C 90 % 1016,4 hPa 0,0 l/m 1,0 km/h (0 Bft) NO 45 -4,7 C -3,9 C 3,4 km/h (1 Bft)
18.02.2014 02:50 -3,1 C 90 % 1016,2 hPa 0,0 l/m 1,1 km/h (1 Bft) SW 225 -4,5 C -3,6 C 4,2 km/h (1 Bft)
18.02.2014 02:55 -3,2 C 90 % 1016,2 hPa 0,0 l/m 0,6 km/h (0 Bft) W-SW 247 -4,6 C -3,5 C 0,0 km/h (0 Bft)
18.02.2014 03:00 -3,4 C 90 % 1016,2 hPa 0,0 l/m 0,0 km/h (0 Bft) W-SW 247 -4,8 C -3,7 C 0,0 km/h (0 Bft)
18.02.2014 03:05 -3,6 C 90 % 1016,2 hPa 0,0 l/m 0,0 km/h (0 Bft) W-SW 247 -5,0 C -3,8 C 0,0 km/h (0 Bft)
18.02.2014 03:10 -3,3 C 90 % 1016,1 hPa 0,0 l/m 0,0 km/h (0 Bft) SO 135 -4,7 C -3,8 C 0,0 km/h (0 Bft)
18.02.2014 03:15 -3,3 C 90 % 1016,1 hPa 0,0 l/m 0,0 km/h (0 Bft) W-SW 247 -4,7 C -3,7 C 0,0 km/h (0 Bft)
18.02.2014 03:20 -3,1 C 90 % 1016,1 hPa 0,0 l/m 1,4 km/h (1 Bft) N 360 -4,5 C -3,4 C 3,2 km/h (1 Bft)
18.02.2014 03:25 -2,9 C 90 % 1016,1 hPa 0,0 l/m 1,8 km/h (1 Bft) NO 45 -4,3 C -3,2 C 0,0 km/h (0 Bft)
18.02.2014 03:30 -2,8 C 90 % 1015,8 hPa 0,0 l/m 0,8 km/h (0 Bft) W 270 -4,2 C -3,0 C 0,0 km/h (0 Bft)
18.02.2014 03:35 -3,2 C 90 % 1015,8 hPa 0,0 l/m 0,0 km/h (0 Bft) W 270 -4,6 C -3,1 C 0,0 km/h (0 Bft)
18.02.2014 03:40 -3,1 C 90 % 1015,8 hPa 0,0 l/m 0,3 km/h (0 Bft) W-SW 247 -4,5 C -3,3 C 0,0 km/h (0 Bft)
18.02.2014 03:45 -3,1 C 90 % 1015,8 hPa 0,0 l/m 0,2 km/h (0 Bft) N-NW 337 -4,5 C -3,3 C 0,0 km/h (0 Bft)
18.02.2014 03:50 -2,6 C 91 % 1015,7 hPa 0,0 l/m 0,0 km/h (0 Bft) N 360 -3,9 C -3,1 C 0,0 km/h (0 Bft)
18.02.2014 03:55 -2,7 C 91 % 1015,7 hPa 0,0 l/m 0,0 km/h (0 Bft) N 360 -4,0 C -3,0 C 0,0 km/h (0 Bft)
18.02.2014 04:00 -3,1 C 90 % 1015,7 hPa 0,0 l/m 0,0 km/h (0 Bft) S 180 -4,5 C -3,0 C 1,6 km/h (1 Bft)
18.02.2014 04:05 -2,9 C 90 % 1015,7 hPa 0,0 l/m 0,0 km/h (0 Bft) W-NW 292 -4,3 C -3,0 C 0,0 km/h (0 Bft)
18.02.2014 04:10 -2,9 C 90 % 1015,6 hPa 0,0 l/m 0,0 km/h (0 Bft) W-NW 292 -4,3 C -3,2 C 0,0 km/h (0 Bft)
18.02.2014 04:15 -3,1 C 90 % 1015,6 hPa 0,0 l/m 0,0 km/h (0 Bft) W-NW 292 -4,5 C -3,2 C 0,0 km/h (0 Bft)
18.02.2014 04:20 -3,1 C 90 % 1015,6 hPa 0,0 l/m 0,2 km/h (0 Bft) S 180 -4,5 C -3,1 C 2,4 km/h (1 Bft)
18.02.2014 04:25 -3,0 C 90 % 1015,6 hPa 0,0 l/m 0,2 km/h (0 Bft) S 180 -4,4 C -3,1 C 0,0 km/h (0 Bft)
18.02.2014 04:30 -2,8 C 90 % 1015,8 hPa 0,0 l/m 0,2 km/h (0 Bft) S 180 -4,2 C -3,2 C 0,0 km/h (0 Bft)
18.02.2014 04:35 -2,8 C 90 % 1015,8 hPa 0,0 l/m 0,0 km/h (0 Bft) S 180 -4,2 C -3,1 C 0,0 km/h (0 Bft)
18.02.2014 04:40 -3,0 C 90 % 1015,8 hPa 0,0 l/m 0,0 km/h (0 Bft) S-SO 157 -4,4 C -3,2 C 0,0 km/h (0 Bft)
18.02.2014 04:45 -3,1 C 90 % 1015,8 hPa 0,0 l/m 0,0 km/h (0 Bft) S-SO 157 -4,5 C -3,2 C 0,0 km/h (0 Bft)
18.02.2014 04:50 -3,1 C 90 % 1015,6 hPa 0,0 l/m 0,0 km/h (0 Bft) S-SO 157 -4,5 C -3,2 C 0,0 km/h (0 Bft)
18.02.2014 04:55 -3,0 C 90 % 1015,6 hPa 0,0 l/m 0,0 km/h (0 Bft) S-SO 157 -4,4 C -3,3 C 0,0 km/h (0 Bft)
18.02.2014 05:00 -3,1 C 90 % 1015,6 hPa 0,0 l/m 0,0 km/h (0 Bft) S-SO 157 -4,5 C -3,3 C 0,0 km/h (0 Bft)
18.02.2014 05:05 -3,0 C 90 % 1015,6 hPa 0,0 l/m 0,0 km/h (0 Bft) S-SO 157 -4,4 C -3,2 C 0,0 km/h (0 Bft)
18.02.2014 05:10 -3,0 C 90 % 1015,5 hPa 0,0 l/m 0,3 km/h (0 Bft) S 180 -4,4 C -3,2 C 3,2 km/h (1 Bft)
18.02.2014 05:15 -2,7 C 91 % 1015,5 hPa 0,0 l/m 1,1 km/h (1 Bft) S-SO 157 -4,0 C -3,1 C 1,9 km/h (1 Bft)
18.02.2014 05:20 -2,6 C 91 % 1015,5 hPa 0,0 l/m 1,1 km/h (1 Bft) S 180 -3,9 C -3,0 C 0,0 km/h (0 Bft)
18.02.2014 05:25 -2,7 C 91 % 1015,5 hPa 0,0 l/m 0,3 km/h (0 Bft) NO 45 -4,0 C -2,9 C 2,3 km/h (1 Bft)
18.02.2014 05:30 -1,8 C 92 % 1015,6 hPa 0,0 l/m 1,0 km/h (0 Bft) O 90 -2,9 C -2,6 C 0,0 km/h (0 Bft)
18.02.2014 05:35 -2,4 C 91 % 1015,6 hPa 0,0 l/m 1,0 km/h (0 Bft) N-NW 337 -3,7 C -2,5 C 0,0 km/h (0 Bft)
18.02.2014 05:40 -2,8 C 91 % 1015,6 hPa 0,0 l/m 0,0 km/h (0 Bft) N 360 -4,1 C -2,8 C 0,0 km/h (0 Bft)
18.02.2014 05:45 -2,6 C 91 % 1015,6 hPa 0,0 l/m 0,3 km/h (0 Bft) N 360 -3,9 C -2,9 C 2,3 km/h (1 Bft)
18.02.2014 05:50 -2,7 C 91 % 1015,8 hPa 0,0 l/m 0,5 km/h (0 Bft) N-NW 337 -4,0 C -2,9 C 0,0 km/h (0 Bft)
18.02.2014 05:55 -3,0 C 91 % 1015,8 hPa 0,0 l/m 0,3 km/h (0 Bft) N-NW 337 -4,3 C -3,0 C 0,0 km/h (0 Bft)
18.02.2014 06:00 -3,2 C 91 % 1015,8 hPa 0,0 l/m 0,0 km/h (0 Bft) N 360 -4,5 C -3,2 C 0,0 km/h (0 Bft)
18.02.2014 06:05 -2,9 C 91 % 1015,8 hPa 0,0 l/m 0,2 km/h (0 Bft) N-NO 22 -4,2 C -3,2 C 0,0 km/h (0 Bft)
18.02.2014 06:10 -2,9 C 91 % 1015,7 hPa 0,0 l/m 0,2 km/h (0 Bft) W-SW 247 -4,2 C -3,1 C 0,0 km/h (0 Bft)
18.02.2014 06:15 -3,0 C 91 % 1015,7 hPa 0,0 l/m 0,0 km/h (0 Bft) W-SW 247 -4,3 C -3,2 C 0,0 km/h (0 Bft)
18.02.2014 06:20 -3,1 C 91 % 1015,7 hPa 0,0 l/m 0,0 km/h (0 Bft) W-NW 292 -4,4 C -3,3 C 0,0 km/h (0 Bft)
18.02.2014 06:25 -3,3 C 91 % 1015,7 hPa 0,0 l/m 0,0 km/h (0 Bft) W-NW 292 -4,6 C -3,4 C 0,0 km/h (0 Bft)
18.02.2014 06:30 -3,2 C 91 % 1015,6 hPa 0,0 l/m 0,0 km/h (0 Bft) NW 315 -4,5 C -3,5 C 0,0 km/h (0 Bft)
18.02.2014 06:35 -3,2 C 91 % 1015,6 hPa 0,0 l/m 0,0 km/h (0 Bft) N-NW 337 -4,5 C -3,5 C 0,0 km/h (0 Bft)
18.02.2014 06:40 -3,1 C 91 % 1015,6 hPa 0,0 l/m 0,3 km/h (0 Bft) N-NO 22 -4,4 C -3,3 C 1,8 km/h (1 Bft)
18.02.2014 06:45 -3,1 C 91 % 1015,6 hPa 0,0 l/m 0,3 km/h (0 Bft) N-NO 22 -4,4 C -3,2 C 0,0 km/h (0 Bft)
18.02.2014 06:50 -3,1 C 91 % 1015,4 hPa 0,0 l/m 0,3 km/h (0 Bft) S 180 -4,4 C -3,0 C 2,1 km/h (1 Bft)
18.02.2014 06:55 -3,0 C 91 % 1015,4 hPa 0,0 l/m 0,3 km/h (0 Bft) S 180 -4,3 C -3,0 C 0,0 km/h (0 Bft)
18.02.2014 07:00 -3,1 C 91 % 1015,4 hPa 0,0 l/m 0,2 km/h (0 Bft) S 180 -4,4 C -3,2 C 0,0 km/h (0 Bft)
18.02.2014 07:05 -3,2 C 91 % 1015,4 hPa 0,0 l/m 0,0 km/h (0 Bft) W-NW 292 -4,5 C -3,3 C 0,0 km/h (0 Bft)
18.02.2014 07:10 -3,1 C 91 % 1015,5 hPa 0,0 l/m 0,3 km/h (0 Bft) N 360 -4,4 C -3,4 C 0,0 km/h (0 Bft)
18.02.2014 07:15 -3,3 C 91 % 1015,5 hPa 0,0 l/m 0,3 km/h (0 Bft) N-NW 337 -4,6 C -3,3 C 0,0 km/h (0 Bft)
18.02.2014 07:20 -3,6 C 90 % 1015,5 hPa 0,0 l/m 0,0 km/h (0 Bft) N-NW 337 -5,0 C -3,6 C 0,0 km/h (0 Bft)
18.02.2014 07:25 -3,7 C 90 % 1015,5 hPa 0,0 l/m 0,0 km/h (0 Bft) N-NW 337 -5,1 C -3,7 C 0,0 km/h (0 Bft)
18.02.2014 07:30 -3,3 C 91 % 1015,6 hPa 0,0 l/m 0,0 km/h (0 Bft) NO 45 -4,6 C -3,6 C 0,0 km/h (0 Bft)
18.02.2014 07:35 -3,0 C 91 % 1015,6 hPa 0,0 l/m 0,0 km/h (0 Bft) N-NO 22 -4,3 C -3,5 C 0,0 km/h (0 Bft)
18.02.2014 07:40 -3,1 C 91 % 1015,6 hPa 0,0 l/m 0,0 km/h (0 Bft) N-NO 22 -4,4 C -3,3 C 0,0 km/h (0 Bft)
18.02.2014 07:45 -3,1 C 91 % 1015,6 hPa 0,0 l/m 0,0 km/h (0 Bft) N-NW 337 -4,4 C -3,3 C 0,0 km/h (0 Bft)
18.02.2014 07:50 -3,0 C 91 % 1015,8 hPa 0,0 l/m 0,0 km/h (0 Bft) N-NO 22 -4,3 C -3,3 C 0,0 km/h (0 Bft)
18.02.2014 07:55 -3,0 C 91 % 1015,8 hPa 0,0 l/m 0,0 km/h (0 Bft) N-NO 22 -4,3 C -3,2 C 0,0 km/h (0 Bft)
18.02.2014 08:00 -2,7 C 91 % 1015,8 hPa 0,0 l/m 0,0 km/h (0 Bft) W-NW 292 -4,0 C -2,9 C 0,0 km/h (0 Bft)
18.02.2014 08:05 -2,6 C 91 % 1015,8 hPa 0,0 l/m 0,2 km/h (0 Bft) NO 45 -3,9 C -2,9 C 2,4 km/h (1 Bft)
18.02.2014 08:10 -2,3 C 91 % 1016,1 hPa 0,0 l/m 0,3 km/h (0 Bft) N 360 -3,6 C -2,5 C 0,0 km/h (0 Bft)
18.02.2014 08:15 -2,3 C 91 % 1016,1 hPa 0,0 l/m 0,3 km/h (0 Bft) W-NW 292 -3,6 C -2,2 C 0,0 km/h (0 Bft)
18.02.2014 08:20 -2,3 C 91 % 1016,1 hPa 0,0 l/m 0,0 km/h (0 Bft) N-NO 22 -3,6 C -2,1 C 0,0 km/h (0 Bft)
18.02.2014 08:25 -2,3 C 91 % 1016,1 hPa 0,0 l/m 0,0 km/h (0 Bft) W-NW 292 -3,6 C -2,1 C 0,0 km/h (0 Bft)
18.02.2014 08:30 -1,1 C 92 % 1016,2 hPa 0,0 l/m 2,7 km/h (1 Bft) O-SO 112 -2,2 C -2,0 C 7,9 km/h (2 Bft)
18.02.2014 08:35 -1,3 C 92 % 1016,2 hPa 0,0 l/m 3,5 km/h (1 Bft) O 90 -2,4 C -2,2 C 5,0 km/h (1 Bft)
18.02.2014 08:40 -0,8 C 92 % 1016,2 hPa 0,0 l/m 3,1 km/h (1 Bft) NO 45 -1,9 C -1,5 C 2,1 km/h (1 Bft)
18.02.2014 08:45 -1,0 C 92 % 1016,2 hPa 0,0 l/m 2,9 km/h (1 Bft) O 90 -2,1 C -1,2 C 4,7 km/h (1 Bft)
18.02.2014 08:50 -0,6 C 92 % 1016,2 hPa 0,0 l/m 3,2 km/h (1 Bft) O 90 -1,7 C -1,2 C 2,9 km/h (1 Bft)
18.02.2014 08:55 -0,5 C 92 % 1016,2 hPa 0,0 l/m 3,2 km/h (1 Bft) NO 45 -1,6 C -1,0 C 2,3 km/h (1 Bft)
18.02.2014 09:00 -0,5 C 92 % 1016,2 hPa 0,0 l/m 1,1 km/h (1 Bft) NO 45 -1,6 C -0,2 C 0,0 km/h (0 Bft)
18.02.2014 09:05 -0,7 C 92 % 1016,2 hPa 0,0 l/m 0,2 km/h (0 Bft) N 360 -1,8 C 0,2 C 0,0 km/h (0 Bft)
18.02.2014 09:10 -0,3 C 92 % 1016,2 hPa 0,0 l/m 0,0 km/h (0 Bft) N-NO 22 -1,4 C 0,4 C 0,0 km/h (0 Bft)
18.02.2014 09:15 -0,2 C 92 % 1016,2 hPa 0,0 l/m 0,5 km/h (0 Bft) NO 45 -1,3 C 1,3 C 0,0 km/h (0 Bft)
18.02.2014 09:20 0,1 C 93 % 1016,2 hPa 0,0 l/m 0,5 km/h (0 Bft) NO 45 -0,9 C 2,7 C 0,0 km/h (0 Bft)
18.02.2014 09:25 0,2 C 93 % 1016,2 hPa 0,0 l/m 1,0 km/h (0 Bft) N-NW 337 -0,8 C 3,5 C 3,1 km/h (1 Bft)
18.02.2014 09:30 0,3 C 93 % 1015,8 hPa 0,0 l/m 1,4 km/h (1 Bft) N 360 -0,7 C 3,8 C 2,1 km/h (1 Bft)
18.02.2014 09:35 0,4 C 93 % 1015,8 hPa 0,0 l/m 1,0 km/h (0 Bft) N-NO 22 -0,6 C 3,2 C 0,0 km/h (0 Bft)
18.02.2014 09:40 0,7 C 93 % 1015,8 hPa 0,0 l/m 0,3 km/h (0 Bft) N-NO 22 -0,3 C 2,6 C 0,0 km/h (0 Bft)
18.02.2014 09:45 1,0 C 93 % 1015,8 hPa 0,0 l/m 0,0 km/h (0 Bft) N 360 -0,0 C 2,6 C 0,0 km/h (0 Bft)
18.02.2014 09:50 1,4 C 93 % 1015,8 hPa 0,0 l/m 0,2 km/h (0 Bft) O-SO 112 0,4 C 3,2 C 0,0 km/h (0 Bft)
18.02.2014 09:55 1,7 C 93 % 1015,8 hPa 0,0 l/m 0,2 km/h (0 Bft) O-SO 112 0,7 C 3,7 C 0,0 km/h (0 Bft)
18.02.2014 10:00 2,2 C 93 % 1015,8 hPa 0,0 l/m 0,0 km/h (0 Bft) SO 135 1,2 C 4,3 C 0,0 km/h (0 Bft)
18.02.2014 10:05 2,4 C 93 % 1015,8 hPa 0,0 l/m 0,0 km/h (0 Bft) O 90 1,4 C 4,8 C 0,0 km/h (0 Bft)
18.02.2014 10:10 2,7 C 93 % 1015,9 hPa 0,0 l/m 0,0 km/h (0 Bft) O 90 1,7 C 5,8 C 0,0 km/h (0 Bft)
18.02.2014 10:15 2,7 C 93 % 1015,9 hPa 0,0 l/m 0,0 km/h (0 Bft) O 90 1,7 C 6,3 C 0,0 km/h (0 Bft)
18.02.2014 10:20 3,1 C 92 % 1015,9 hPa 0,0 l/m 0,0 km/h (0 Bft) SO 135 1,9 C 7,1 C 0,0 km/h (0 Bft)
18.02.2014 10:25 3,3 C 92 % 1015,9 hPa 0,0 l/m 0,0 km/h (0 Bft) O 90 2,1 C 8,1 C 0,0 km/h (0 Bft)
18.02.2014 10:30 3,6 C 91 % 1015,7 hPa 0,0 l/m 1,0 km/h (0 Bft) NW 315 2,3 C 9,4 C 2,4 km/h (1 Bft)
18.02.2014 10:35 3,8 C 90 % 1015,7 hPa 0,0 l/m 2,3 km/h (1 Bft) N-NW 337 2,3 C 9,6 C 4,0 km/h (1 Bft)
18.02.2014 10:40 4,4 C 87 % 1015,7 hPa 0,0 l/m 3,2 km/h (1 Bft) N 360 2,4 C 10,0 C 2,9 km/h (1 Bft)
18.02.2014 10:45 4,7 C 84 % 1015,7 hPa 0,0 l/m 3,4 km/h (1 Bft) N-NW 337 2,2 C 10,3 C 4,2 km/h (1 Bft)
18.02.2014 10:50 5,6 C 80 % 1015,8 hPa 0,0 l/m 3,1 km/h (1 Bft) W 270 2,4 C 10,6 C 3,1 km/h (1 Bft)
18.02.2014 10:55 5,6 C 79 % 1015,8 hPa 0,0 l/m 2,3 km/h (1 Bft) NO 45 2,3 C 11,0 C 2,4 km/h (1 Bft)
18.02.2014 11:00 5,6 C 76 % 1015,8 hPa 0,0 l/m 2,9 km/h (1 Bft) N-NW 337 1,7 C 11,0 C 3,9 km/h (1 Bft)
18.02.2014 11:05 5,7 C 76 % 1015,8 hPa 0,0 l/m 3,5 km/h (1 Bft) N 360 1,8 C 11,1 C 3,5 km/h (1 Bft)
18.02.2014 11:10 5,3 C 77 % 1016,1 hPa 0,0 l/m 2,9 km/h (1 Bft) O-NO 67 1,6 C 11,0 C 1,9 km/h (1 Bft)
18.02.2014 11:15 5,4 C 79 % 1016,1 hPa 0,0 l/m 2,3 km/h (1 Bft) O 90 2,1 C 11,6 C 2,3 km/h (1 Bft)
18.02.2014 11:20 5,6 C 81 % 1016,1 hPa 0,0 l/m 2,6 km/h (1 Bft) W 270 2,6 C 12,1 C 7,4 km/h (2 Bft)
18.02.2014 11:25 6,0 C 79 % 1016,1 hPa 0,0 l/m 3,5 km/h (1 Bft) S-SW 202 2,6 C 12,0 C 3,1 km/h (1 Bft)
18.02.2014 11:30 6,5 C 77 % 1016,1 hPa 0,0 l/m 4,5 km/h (1 Bft) W-SW 247 2,8 C 12,0 C 4,5 km/h (1 Bft)
18.02.2014 11:35 7,1 C 73 % 1016,1 hPa 0,0 l/m 4,2 km/h (1 Bft) S-SO 157 2,6 C 12,1 C 7,4 km/h (2 Bft)
18.02.2014 11:40 7,8 C 74 % 1016,1 hPa 0,0 l/m 4,8 km/h (1 Bft) S-SW 202 3,5 C 11,7 C 9,3 km/h (2 Bft)
18.02.2014 11:45 8,2 C 67 % 1016,1 hPa 0,0 l/m 5,6 km/h (1 Bft) S 180 2,4 C 11,4 C 5,6 km/h (1 Bft)
18.02.2014 11:50 8,6 C 71 % 1016,1 hPa 0,0 l/m 5,5 km/h (1 Bft) S-SO 157 3,6 C 11,8 C 7,2 km/h (2 Bft)
18.02.2014 11:55 8,9 C 69 % 1016,1 hPa 0,0 l/m 5,6 km/h (1 Bft) SW 225 3,5 C 11,8 C 6,4 km/h (2 Bft)
18.02.2014 11:59 8,8 C 67 % 1016,1 hPa 0,0 l/m 5,8 km/h (2 Bft) S 180 3,0 C 11,9 C 7,6 km/h (2 Bft)
18.02.2014 12:00 8,8 C 67 % 1016,1 hPa 0,0 l/m 5,8 km/h (2 Bft) S 180 3,0 C 11,9 C 7,6 km/h (2 Bft)
18.02.2014 12:05 8,8 C 67 % 1016,1 hPa 0,0 l/m 5,5 km/h (1 Bft) S 180 3,0 C 12,2 C 6,3 km/h (2 Bft)
18.02.2014 12:10 8,8 C 65 % 1016,1 hPa 0,0 l/m 5,1 km/h (1 Bft) W-SW 247 2,6 C 12,1 C 3,7 km/h (1 Bft)
18.02.2014 12:15 8,9 C 68 % 1016,1 hPa 0,0 l/m 5,1 km/h (1 Bft) W-SW 247 3,3 C 12,2 C 5,3 km/h (1 Bft)
18.02.2014 12:20 9,3 C 74 % 1016,1 hPa 0,0 l/m 4,0 km/h (1 Bft) W-SW 247 4,9 C 12,4 C 5,1 km/h (1 Bft)
18.02.2014 12:25 9,6 C 61 % 1016,1 hPa 0,0 l/m 3,9 km/h (1 Bft) S 180 2,5 C 12,7 C 6,4 km/h (2 Bft)
18.02.2014 12:30 9,7 C 68 % 1016,1 hPa 0,0 l/m 3,7 km/h (1 Bft) S 180 4,1 C 13,5 C 0,0 km/h (0 Bft)
18.02.2014 12:35 10,1 C 70 % 1016,1 hPa 0,0 l/m 2,7 km/h (1 Bft) W 270 4,9 C 14,1 C 2,4 km/h (1 Bft)
18.02.2014 12:40 9,7 C 64 % 1016,1 hPa 0,0 l/m 2,1 km/h (1 Bft) W-SW 247 3,2 C 14,5 C 4,5 km/h (1 Bft)
18.02.2014 12:45 9,2 C 60 % 1016,1 hPa 0,0 l/m 3,4 km/h (1 Bft) W 270 1,8 C 14,1 C 5,5 km/h (1 Bft)
18.02.2014 12:50 8,7 C 57 % 1015,9 hPa 0,0 l/m 2,6 km/h (1 Bft) N-NW 337 0,7 C 13,7 C 3,4 km/h (1 Bft)
18.02.2014 12:55 8,5 C 59 % 1015,9 hPa 0,0 l/m 2,7 km/h (1 Bft) W-NW 292 1,0 C 13,3 C 1,9 km/h (1 Bft)
18.02.2014 13:00 8,4 C 58 % 1015,9 hPa 0,0 l/m 2,7 km/h (1 Bft) W 270 0,6 C 12,8 C 1,9 km/h (1 Bft)
18.02.2014 13:05 9,0 C 60 % 1015,9 hPa 0,0 l/m 1,4 km/h (1 Bft) O-SO 112 1,7 C 12,9 C 0,0 km/h (0 Bft)
18.02.2014 13:10 8,8 C 59 % 1015,4 hPa 0,0 l/m 0,3 km/h (0 Bft) N-NO 22 1,2 C 13,0 C 0,0 km/h (0 Bft)
18.02.2014 13:15 8,7 C 52 % 1015,4 hPa 0,0 l/m 0,6 km/h (0 Bft) N 360 -0,6 C 13,0 C 3,2 km/h (1 Bft)
18.02.2014 13:20 8,6 C 56 % 1015,4 hPa 0,0 l/m 1,6 km/h (1 Bft) W-NW 292 0,3 C 12,0 C 0,0 km/h (0 Bft)
18.02.2014 13:25 8,4 C 55 % 1015,4 hPa 0,0 l/m 1,4 km/h (1 Bft) W-NW 292 -0,1 C 11,6 C 0,0 km/h (0 Bft)
18.02.2014 13:30 9,4 C 55 % 1015,6 hPa 0,0 l/m 1,0 km/h (0 Bft) W-SW 247 0,8 C 12,4 C 0,0 km/h (0 Bft)
18.02.2014 13:35 10,0 C 53 % 1015,6 hPa 0,0 l/m 1,3 km/h (1 Bft) SO 135 0,9 C 13,7 C 0,0 km/h (0 Bft)
18.02.2014 13:40 10,3 C 56 % 1015,6 hPa 0,0 l/m 1,3 km/h (1 Bft) W 270 1,9 C 14,6 C 4,3 km/h (1 Bft)
18.02.2014 13:45 9,8 C 53 % 1015,6 hPa 0,0 l/m 2,4 km/h (1 Bft) W-NW 292 0,7 C 13,9 C 5,6 km/h (1 Bft)
18.02.2014 13:50 9,1 C 54 % 1015,6 hPa 0,0 l/m 3,1 km/h (1 Bft) W-NW 292 0,3 C 12,4 C 0,0 km/h (0 Bft)
18.02.2014 13:55 9,2 C 56 % 1015,6 hPa 0,0 l/m 1,6 km/h (1 Bft) W-SW 247 0,9 C 11,9 C 0,0 km/h (0 Bft)
18.02.2014 14:00 10,1 C 54 % 1015,6 hPa 0,0 l/m 1,0 km/h (0 Bft) S-SW 202 1,2 C 12,2 C 2,3 km/h (1 Bft)
18.02.2014 14:05 10,3 C 56 % 1015,6 hPa 0,0 l/m 1,1 km/h (1 Bft) S 180 1,9 C 12,4 C 3,4 km/h (1 Bft)
18.02.2014 14:10 10,7 C 55 % 1015,4 hPa 0,0 l/m 1,8 km/h (1 Bft) S 180 2,0 C 12,9 C 2,9 km/h (1 Bft)
18.02.2014 14:15 10,5 C 49 % 1015,4 hPa 0,0 l/m 2,1 km/h (1 Bft) N-NW 337 0,2 C 13,1 C 2,9 km/h (1 Bft)
18.02.2014 14:20 10,2 C 51 % 1015,4 hPa 0,0 l/m 2,1 km/h (1 Bft) W 270 0,5 C 13,2 C 3,5 km/h (1 Bft)
18.02.2014 14:25 10,0 C 52 % 1015,4 hPa 0,0 l/m 2,1 km/h (1 Bft) N-NW 337 0,6 C 12,8 C 2,9 km/h (1 Bft)
18.02.2014 14:30 9,5 C 53 % 1015,2 hPa 0,0 l/m 1,3 km/h (1 Bft) W-SW 247 0,4 C 12,3 C 0,0 km/h (0 Bft)
18.02.2014 14:35 9,8 C 54 % 1015,2 hPa 0,0 l/m 0,8 km/h (0 Bft) W-NW 292 0,9 C 12,1 C 1,9 km/h (1 Bft)
18.02.2014 14:40 9,6 C 53 % 1015,2 hPa 0,0 l/m 1,3 km/h (1 Bft) W-NW 292 0,5 C 12,1 C 4,0 km/h (1 Bft)
18.02.2014 14:45 9,8 C 54 % 1015,2 hPa 0,0 l/m 2,1 km/h (1 Bft) W 270 0,9 C 11,8 C 2,3 km/h (1 Bft)
18.02.2014 14:50 10,3 C 53 % 1015,1 hPa 0,0 l/m 2,6 km/h (1 Bft) S 180 1,1 C 12,3 C 3,7 km/h (1 Bft)
18.02.2014 14:55 10,4 C 54 % 1015,1 hPa 0,0 l/m 1,6 km/h (1 Bft) S-SO 157 1,5 C 12,5 C 0,0 km/h (0 Bft)
18.02.2014 15:00 11,2 C 52 % 1015,1 hPa 0,0 l/m 1,4 km/h (1 Bft) S-SW 202 1,7 C 13,7 C 2,7 km/h (1 Bft)
18.02.2014 15:05 11,5 C 52 % 1015,1 hPa 0,0 l/m 1,4 km/h (1 Bft) O 90 2,0 C 14,9 C 0,0 km/h (0 Bft)
18.02.2014 15:10 11,4 C 49 % 1015,2 hPa 0,0 l/m 2,1 km/h (1 Bft) W 270 1,1 C 15,0 C 2,4 km/h (1 Bft)
18.02.2014 15:15 11,0 C 49 % 1015,2 hPa 0,0 l/m 1,8 km/h (1 Bft) W-SW 247 0,7 C 14,4 C 4,5 km/h (1 Bft)
18.02.2014 15:20 10,6 C 50 % 1015,2 hPa 0,0 l/m 1,3 km/h (1 Bft) S 180 0,6 C 13,5 C 1,9 km/h (1 Bft)
18.02.2014 15:25 9,9 C 51 % 1015,2 hPa 0,0 l/m 1,1 km/h (1 Bft) N-NO 22 0,2 C 12,6 C 0,0 km/h (0 Bft)
18.02.2014 15:30 8,9 C 54 % 1015,1 hPa 0,0 l/m 0,2 km/h (0 Bft) N-NO 22 0,1 C 11,6 C 0,0 km/h (0 Bft)
18.02.2014 15:35 8,7 C 54 % 1015,1 hPa 0,0 l/m 0,3 km/h (0 Bft) NO 45 -0,1 C 10,9 C 1,9 km/h (1 Bft)
18.02.2014 15:40 8,6 C 55 % 1015,1 hPa 0,0 l/m 1,3 km/h (1 Bft) O 90 0,1 C 10,3 C 2,3 km/h (1 Bft)
18.02.2014 15:45 8,7 C 56 % 1015,1 hPa 0,0 l/m 1,9 km/h (1 Bft) O-NO 67 0,4 C 10,1 C 2,4 km/h (1 Bft)
18.02.2014 15:50 8,7 C 57 % 1014,9 hPa 0,0 l/m 1,8 km/h (1 Bft) NO 45 0,7 C 10,0 C 2,6 km/h (1 Bft)
18.02.2014 15:55 8,8 C 57 % 1014,9 hPa 0,0 l/m 1,1 km/h (1 Bft) NO 45 0,8 C 10,1 C 2,3 km/h (1 Bft)
18.02.2014 16:00 8,8 C 57 % 1014,9 hPa 0,0 l/m 0,6 km/h (0 Bft) NO 45 0,8 C 10,2 C 0,0 km/h (0 Bft)
18.02.2014 16:05 8,8 C 57 % 1014,9 hPa 0,0 l/m 0,2 km/h (0 Bft) N 360 0,8 C 10,4 C 1,6 km/h (1 Bft)
18.02.2014 16:10 8,8 C 58 % 1014,6 hPa 0,0 l/m 1,3 km/h (1 Bft) N-NW 337 1,0 C 10,5 C 5,0 km/h (1 Bft)
18.02.2014 16:15 8,7 C 59 % 1014,6 hPa 0,0 l/m 2,7 km/h (1 Bft) N-NO 22 1,1 C 10,4 C 3,4 km/h (1 Bft)
18.02.2014 16:20 8,6 C 59 % 1014,6 hPa 0,0 l/m 2,6 km/h (1 Bft) N 360 1,0 C 10,6 C 0,0 km/h (0 Bft)
18.02.2014 16:25 8,5 C 60 % 1014,6 hPa 0,0 l/m 1,4 km/h (1 Bft) N-NW 337 1,2 C 10,6 C 1,8 km/h (1 Bft)
18.02.2014 16:30 8,2 C 60 % 1014,6 hPa 0,0 l/m 1,6 km/h (1 Bft) N 360 0,9 C 10,4 C 3,2 km/h (1 Bft)
18.02.2014 16:35 7,9 C 61 % 1014,6 hPa 0,0 l/m 1,4 km/h (1 Bft) N-NO 22 0,9 C 10,2 C 0,0 km/h (0 Bft)
18.02.2014 16:40 7,6 C 61 % 1014,6 hPa 0,0 l/m 0,6 km/h (0 Bft) NO 45 0,6 C 10,0 C 1,9 km/h (1 Bft)
18.02.2014 16:45 7,5 C 62 % 1014,6 hPa 0,0 l/m 0,2 km/h (0 Bft) NO 45 0,7 C 10,0 C 0,0 km/h (0 Bft)
18.02.2014 16:50 7,3 C 63 % 1014,4 hPa 0,0 l/m 0,8 km/h (0 Bft) NO 45 0,7 C 9,5 C 0,0 km/h (0 Bft)
18.02.2014 16:54 7,2 C 64 % 1014,4 hPa 0,0 l/m 1,4 km/h (1 Bft) O-NO 67 0,9 C 9,1 C 4,0 km/h (1 Bft)
18.02.2014 16:55 7,2 C 64 % 1014,4 hPa 0,0 l/m 1,4 km/h (1 Bft) O-NO 67 0,9 C 9,1 C 4,0 km/h (1 Bft)
18.02.2014 17:00 6,8 C 65 % 1014,4 hPa 0,0 l/m 1,4 km/h (1 Bft) NO 45 0,7 C 8,4 C 0,0 km/h (0 Bft)
18.02.2014 17:05 6,5 C 66 % 1014,4 hPa 0,0 l/m 1,0 km/h (0 Bft) O-NO 67 0,6 C 8,0 C 0,0 km/h (0 Bft)
18.02.2014 17:10 6,5 C 66 % 1014,5 hPa 0,0 l/m 0,8 km/h (0 Bft) O 90 0,6 C 7,6 C 2,3 km/h (1 Bft)
18.02.2014 17:15 6,4 C 67 % 1014,5 hPa 0,0 l/m 1,1 km/h (1 Bft) O-NO 67 0,7 C 7,2 C 1,8 km/h (1 Bft)
18.02.2014 17:20 6,2 C 68 % 1014,5 hPa 0,0 l/m 1,8 km/h (1 Bft) NO 45 0,7 C 6,8 C 2,7 km/h (1 Bft)
18.02.2014 17:25 6,1 C 68 % 1014,5 hPa 0,0 l/m 2,7 km/h (1 Bft) NO 45 0,6 C 6,4 C 4,8 km/h (1 Bft)
18.02.2014 17:30 5,7 C 69 % 1014,6 hPa 0,0 l/m 2,6 km/h (1 Bft) NO 45 0,5 C 6,1 C 1,9 km/h (1 Bft)
18.02.2014 17:35 5,5 C 70 % 1014,6 hPa 0,0 l/m 2,4 km/h (1 Bft) O-NO 67 0,5 C 5,8 C 3,2 km/h (1 Bft)
18.02.2014 17:40 5,0 C 70 % 1014,6 hPa 0,0 l/m 1,3 km/h (1 Bft) NO 45 -0,0 C 5,5 C 0,0 km/h (0 Bft)
18.02.2014 17:45 4,5 C 70 % 1014,6 hPa 0,0 l/m 0,5 km/h (0 Bft) O 90 -0,5 C 5,2 C 0,0 km/h (0 Bft)
18.02.2014 17:50 5,0 C 72 % 1014,4 hPa 0,0 l/m 1,3 km/h (1 Bft) NO 45 0,4 C 4,6 C 3,9 km/h (1 Bft)
18.02.2014 17:55 5,1 C 72 % 1014,4 hPa 0,0 l/m 3,4 km/h (1 Bft) O 90 0,5 C 4,3 C 7,4 km/h (2 Bft)
18.02.2014 18:00 5,1 C 72 % 1014,4 hPa 0,0 l/m 5,5 km/h (1 Bft) NO 45 0,5 C 3,6 C 6,8 km/h (2 Bft)
18.02.2014 18:05 4,6 C 72 % 1014,4 hPa 0,0 l/m 4,7 km/h (1 Bft) O-SO 112 -0,0 C 3,6 C 0,0 km/h (0 Bft)
18.02.2014 18:10 4,0 C 75 % 1014,4 hPa 0,0 l/m 1,1 km/h (1 Bft) NO 45 -0,0 C 3,9 C 0,0 km/h (0 Bft)
18.02.2014 18:15 4,4 C 76 % 1014,4 hPa 0,0 l/m 0,8 km/h (0 Bft) NO 45 0,5 C 3,7 C 1,6 km/h (1 Bft)
18.02.2014 18:20 3,8 C 76 % 1014,4 hPa 0,0 l/m 1,6 km/h (1 Bft) O-NO 67 -0,0 C 3,2 C 2,9 km/h (1 Bft)
18.02.2014 18:25 3,8 C 76 % 1014,4 hPa 0,0 l/m 1,4 km/h (1 Bft) O 90 -0,0 C 2,9 C 2,9 km/h (1 Bft)
18.02.2014 18:30 3,7 C 77 % 1014,4 hPa 0,0 l/m 3,1 km/h (1 Bft) NO 45 0,1 C 2,5 C 3,4 km/h (1 Bft)
18.02.2014 18:35 3,7 C 77 % 1014,4 hPa 0,0 l/m 3,7 km/h (1 Bft) NO 45 0,1 C 1,9 C 4,2 km/h (1 Bft)
18.02.2014 18:40 3,8 C 78 % 1014,4 hPa 0,0 l/m 3,1 km/h (1 Bft) O-SO 112 0,3 C 2,1 C 0,0 km/h (0 Bft)
18.02.2014 18:45 3,0 C 77 % 1014,4 hPa 0,0 l/m 2,1 km/h (1 Bft) SO 135 -0,6 C 2,3 C 0,0 km/h (0 Bft)
18.02.2014 18:50 3,2 C 79 % 1014,6 hPa 0,0 l/m 2,1 km/h (1 Bft) NO 45 -0,1 C 2,0 C 5,8 km/h (2 Bft)
18.02.2014 18:55 3,7 C 79 % 1014,6 hPa 0,0 l/m 4,0 km/h (1 Bft) O-NO 67 0,4 C 1,6 C 7,1 km/h (2 Bft)
18.02.2014 19:00 3,1 C 79 % 1014,6 hPa 0,0 l/m 6,0 km/h (2 Bft) O-SO 112 -0,2 C 1,6 C 6,4 km/h (2 Bft)
18.02.2014 19:05 3,0 C 79 % 1014,6 hPa 0,0 l/m 5,5 km/h (1 Bft) O-NO 67 -0,3 C 1,3 C 5,3 km/h (1 Bft)
18.02.2014 19:10 2,8 C 80 % 1014,4 hPa 0,0 l/m 5,0 km/h (1 Bft) O-SO 112 -0,3 C 1,1 C 7,2 km/h (2 Bft)
18.02.2014 19:15 2,9 C 81 % 1014,4 hPa 0,0 l/m 5,0 km/h (1 Bft) NO 45 -0,0 C 1,0 C 2,3 km/h (1 Bft)
18.02.2014 19:20 2,4 C 81 % 1014,4 hPa 0,0 l/m 2,4 km/h (1 Bft) SO 135 -0,5 C 1,9 C 0,0 km/h (0 Bft)
18.02.2014 19:25 2,0 C 81 % 1014,4 hPa 0,0 l/m 0,3 km/h (0 Bft) NO 45 -0,9 C 1,5 C 0,0 km/h (0 Bft)
18.02.2014 19:30 1,6 C 81 % 1014,4 hPa 0,0 l/m 0,0 km/h (0 Bft) NO 45 -1,3 C 0,9 C 0,0 km/h (0 Bft)
18.02.2014 19:35 1,4 C 81 % 1014,4 hPa 0,0 l/m 0,2 km/h (0 Bft) O-NO 67 -1,5 C 0,8 C 1,9 km/h (1 Bft)
18.02.2014 19:40 1,9 C 82 % 1014,4 hPa 0,0 l/m 0,5 km/h (0 Bft) SO 135 -0,8 C 1,0 C 0,0 km/h (0 Bft)
18.02.2014 19:45 1,6 C 82 % 1014,4 hPa 0,0 l/m 0,5 km/h (0 Bft) NO 45 -1,1 C 1,0 C 0,0 km/h (0 Bft)
18.02.2014 19:50 1,4 C 82 % 1014,1 hPa 0,0 l/m 0,2 km/h (0 Bft) NO 45 -1,3 C 1,0 C 0,0 km/h (0 Bft)
18.02.2014 19:55 1,3 C 83 % 1014,1 hPa 0,0 l/m 0,2 km/h (0 Bft) SO 135 -1,3 C 1,0 C 0,0 km/h (0 Bft)
18.02.2014 20:00 1,5 C 83 % 1014,1 hPa 0,0 l/m 0,5 km/h (0 Bft) W 270 -1,1 C 1,0 C 2,4 km/h (1 Bft)
18.02.2014 20:05 1,4 C 83 % 1014,1 hPa 0,0 l/m 0,8 km/h (0 Bft) O-NO 67 -1,2 C 1,1 C 4,2 km/h (1 Bft)
18.02.2014 20:10 2,1 C 84 % 1013,9 hPa 0,0 l/m 1,9 km/h (1 Bft) NO 45 -0,3 C 1,3 C 0,0 km/h (0 Bft)
18.02.2014 20:15 1,4 C 83 % 1013,9 hPa 0,0 l/m 1,9 km/h (1 Bft) SW 225 -1,2 C 1,4 C 0,0 km/h (0 Bft)
18.02.2014 20:20 1,2 C 83 % 1013,9 hPa 0,0 l/m 0,2 km/h (0 Bft) O-SO 112 -1,4 C 1,0 C 0,0 km/h (0 Bft)
18.02.2014 20:25 1,1 C 83 % 1013,9 hPa 0,0 l/m 0,3 km/h (0 Bft) O-SO 112 -1,5 C 0,9 C 3,2 km/h (1 Bft)
18.02.2014 20:30 1,0 C 83 % 1013,9 hPa 0,0 l/m 0,6 km/h (0 Bft) SW 225 -1,6 C 0,9 C 0,0 km/h (0 Bft)
18.02.2014 20:35 1,2 C 85 % 1013,9 hPa 0,0 l/m 1,1 km/h (1 Bft) NO 45 -1,0 C 0,8 C 4,3 km/h (1 Bft)
18.02.2014 20:40 1,2 C 85 % 1013,9 hPa 0,0 l/m 1,1 km/h (1 Bft) O-SO 112 -1,0 C 0,9 C 0,0 km/h (0 Bft)
18.02.2014 20:45 1,3 C 86 % 1013,9 hPa 0,0 l/m 1,1 km/h (1 Bft) N-NW 337 -0,8 C 0,9 C 0,0 km/h (0 Bft)
18.02.2014 20:50 0,7 C 85 % 1013,8 hPa 0,0 l/m 0,5 km/h (0 Bft) SO 135 -1,5 C 0,8 C 2,9 km/h (1 Bft)
18.02.2014 20:55 0,8 C 85 % 1013,8 hPa 0,0 l/m 0,5 km/h (0 Bft) O-SO 112 -1,4 C 0,7 C 0,0 km/h (0 Bft)
18.02.2014 21:00 0,8 C 85 % 1013,8 hPa 0,0 l/m 0,5 km/h (0 Bft) NO 45 -1,4 C 0,6 C 0,0 km/h (0 Bft)
18.02.2014 21:05 0,7 C 85 % 1013,8 hPa 0,0 l/m 0,0 km/h (0 Bft) NO 45 -1,5 C 0,5 C 0,0 km/h (0 Bft)
18.02.2014 21:10 0,7 C 85 % 1013,8 hPa 0,0 l/m 0,0 km/h (0 Bft) NO 45 -1,5 C 0,6 C 0,0 km/h (0 Bft)
18.02.2014 21:15 0,6 C 85 % 1013,8 hPa 0,0 l/m 0,0 km/h (0 Bft) NO 45 -1,6 C 0,6 C 0,0 km/h (0 Bft)
18.02.2014 21:20 0,8 C 86 % 1013,8 hPa 0,0 l/m 0,0 km/h (0 Bft) SO 135 -1,3 C 0,4 C 0,0 km/h (0 Bft)
18.02.2014 21:25 0,6 C 85 % 1013,8 hPa 0,0 l/m 0,0 km/h (0 Bft) NO 45 -1,6 C 0,3 C 0,0 km/h (0 Bft)
18.02.2014 21:30 0,2 C 85 % 1013,9 hPa 0,0 l/m 0,0 km/h (0 Bft) NO 45 -2,0 C 0,2 C 0,0 km/h (0 Bft)
18.02.2014 21:35 0,2 C 85 % 1013,9 hPa 0,0 l/m 0,0 km/h (0 Bft) NO 45 -2,0 C 0,1 C 0,0 km/h (0 Bft)
18.02.2014 21:40 0,3 C 85 % 1013,9 hPa 0,0 l/m 0,0 km/h (0 Bft) NO 45 -1,9 C 0,2 C 0,0 km/h (0 Bft)
18.02.2014 21:45 0,5 C 86 % 1013,9 hPa 0,0 l/m 0,5 km/h (0 Bft) NO 45 -1,6 C 0,2 C 2,4 km/h (1 Bft)
18.02.2014 21:50 0,6 C 86 % 1013,8 hPa 0,0 l/m 0,6 km/h (0 Bft) SO 135 -1,5 C 0,5 C 0,0 km/h (0 Bft)
18.02.2014 21:53 0,7 C 86 % 1013,8 hPa 0,0 l/m 0,5 km/h (0 Bft) N-NO 22 -1,4 C 0,5 C 2,3 km/h (1 Bft)
18.02.2014 21:55 0,7 C 86 % 1013,8 hPa 0,0 l/m 0,5 km/h (0 Bft) N-NO 22 -1,4 C 0,5 C 2,3 km/h (1 Bft)
18.02.2014 22:00 0,8 C 86 % 1013,8 hPa 0,0 l/m 0,5 km/h (0 Bft) NO 45 -1,3 C 0,7 C 0,0 km/h (0 Bft)
18.02.2014 22:05 0,7 C 86 % 1013,8 hPa 0,0 l/m 0,5 km/h (0 Bft) NO 45 -1,4 C 0,7 C 0,0 km/h (0 Bft)
18.02.2014 22:10 1,0 C 86 % 1013,8 hPa 0,0 l/m 0,0 km/h (0 Bft) NO 45 -1,1 C 0,8 C 0,0 km/h (0 Bft)
18.02.2014 22:15 1,0 C 86 % 1013,8 hPa 0,0 l/m 0,0 km/h (0 Bft) N-NO 22 -1,1 C 0,9 C 0,0 km/h (0 Bft)
18.02.2014 22:20 1,0 C 86 % 1013,8 hPa 0,0 l/m 0,0 km/h (0 Bft) N 360 -1,1 C 1,1 C 0,0 km/h (0 Bft)
18.02.2014 22:25 1,4 C 86 % 1013,8 hPa 0,0 l/m 0,2 km/h (0 Bft) N-NO 22 -0,7 C 1,1 C 1,8 km/h (1 Bft)
18.02.2014 22:30 1,5 C 86 % 1013,6 hPa 0,0 l/m 0,3 km/h (0 Bft) NO 45 -0,6 C 1,3 C 0,0 km/h (0 Bft)
18.02.2014 22:35 1,4 C 86 % 1013,6 hPa 0,0 l/m 0,3 km/h (0 Bft) NW 315 -0,7 C 1,4 C 1,8 km/h (1 Bft)
18.02.2014 22:40 1,1 C 85 % 1013,6 hPa 0,0 l/m 0,3 km/h (0 Bft) O 90 -1,1 C 1,3 C 0,0 km/h (0 Bft)
18.02.2014 22:45 0,8 C 85 % 1013,6 hPa 0,0 l/m 0,3 km/h (0 Bft) O 90 -1,4 C 1,1 C 0,0 km/h (0 Bft)
18.02.2014 22:50 0,7 C 85 % 1013,7 hPa 0,0 l/m 0,6 km/h (0 Bft) O-NO 67 -1,5 C 0,9 C 2,9 km/h (1 Bft)
18.02.2014 22:55 1,4 C 85 % 1013,7 hPa 0,0 l/m 1,1 km/h (1 Bft) O-NO 67 -0,8 C 0,9 C 0,0 km/h (0 Bft)
18.02.2014 23:00 1,2 C 85 % 1013,7 hPa 0,0 l/m 1,4 km/h (1 Bft) NO 45 -1,0 C 1,1 C 0,0 km/h (0 Bft)
18.02.2014 23:05 1,2 C 85 % 1013,7 hPa 0,0 l/m 0,8 km/h (0 Bft) NO 45 -1,0 C 1,2 C 0,0 km/h (0 Bft)
18.02.2014 23:10 1,1 C 84 % 1013,6 hPa 0,0 l/m 0,2 km/h (0 Bft) NO 45 -1,3 C 1,3 C 0,0 km/h (0 Bft)
18.02.2014 23:15 1,2 C 84 % 1013,6 hPa 0,0 l/m 0,2 km/h (0 Bft) W-SW 247 -1,2 C 1,4 C 0,0 km/h (0 Bft)
18.02.2014 23:20 1,3 C 84 % 1013,6 hPa 0,0 l/m 0,0 km/h (0 Bft) O 90 -1,1 C 1,5 C 0,0 km/h (0 Bft)
18.02.2014 23:25 1,4 C 84 % 1013,6 hPa 0,0 l/m 0,0 km/h (0 Bft) NO 45 -1,0 C 1,5 C 0,0 km/h (0 Bft)
18.02.2014 23:30 1,3 C 84 % 1012,9 hPa 0,0 l/m 0,0 km/h (0 Bft) NO 45 -1,1 C 1,5 C 0,0 km/h (0 Bft)
18.02.2014 23:35 1,2 C 84 % 1012,9 hPa 0,0 l/m 0,0 km/h (0 Bft) NO 45 -1,2 C 1,5 C 0,0 km/h (0 Bft)
18.02.2014 23:40 1,4 C 84 % 1012,9 hPa 0,0 l/m 0,0 km/h (0 Bft) N-NO 22 -1,0 C 1,5 C 0,0 km/h (0 Bft)
18.02.2014 23:45 1,2 C 84 % 1012,9 hPa 0,0 l/m 0,0 km/h (0 Bft) NO 45 -1,2 C 1,5 C 0,0 km/h (0 Bft)
18.02.2014 23:50 1,5 C 84 % 1013,5 hPa 0,0 l/m 0,5 km/h (0 Bft) NO 45 -0,9 C 1,6 C 3,9 km/h (1 Bft)
18.02.2014 23:55 2,2 C 83 % 1013,5 hPa 0,0 l/m 1,1 km/h (1 Bft) O-SO 112 -0,4 C 1,9 C 2,4 km/h (1 Bft)
_ Min-Zeit 02:30 15:15 23:45 - 23:45 - - 02:30 02:35 23:45
Minimum _ -3,8 C 49 % 1012,9 hPa - 0,0 km/h (0 Bft) - - -5,3 C -4,1 C 0,0 km/h (0 Bft)
_ Max-Zeit 15:05 10:15 00:05 23:55 19:00 - - 12:20 15:10 11:40
Maximum _ 11,5 C 93 % 1016,9 hPa 0,0 l/m 6,0 km/h
O-SO (2 Bft)
- - 4,9 C 15,0 C 9,3 km/h
S-SW (2 Bft)
Durchschnitt _ 2,0 C 80 % 1015,3 hPa #0,0 l/m 1,1 km/h (1 Bft) NO - -1,4 C 2,8 C 1,4 km/h (1 Bft)